Location: Little Chesterford
(52.0500°N, 0.1833°E)
Time: 05:11:29
(UTC+00:00)

NOSS 2-3 (D) - Pass Details

Date: 26 September 2023
Orbit: 506 x 1696 km, 63.3° (Epoch: 06 November)

Event Time Altitude Azimuth Distance (km) Brightness Sun altitude
Rises 19:58:12 0° 231° (SW) 2,607 7.1 -20.1°
Reaches altitude 10° 20:00:14 10° 234° (SW) 1,752 6.2 -20.4°
Maximum altitude 20:04:02 72° 318° (NW) 602 3.6 -20.9°
Enters shadow 20:07:48 14° 43° (NE) 1,768 5.7 -21.4°
